Time,TemperatureF,DewpointF,PressureIn,WindDirection,WindDirectionDegrees,WindSpeedMPH,WindSpeedGustMPH,Humidity,HourlyPrecipIn,Conditions,Clouds,dailyrainin,SolarRadiationWatts/m^2,SoftwareType,DateUTC
2013-01-20 00:22:00,56.0,12.0,-100.00,East,83,11.0,15.0,17,-99.99,,,0.00,0.000000,,2013-01-20 08:22:00,
2013-01-20 01:33:00,56.0,10.0,-100.00,ENE,74,13.0,16.0,16,-99.99,,,0.00,0.000000,,2013-01-20 09:33:00,
2013-01-20 02:32:00,57.0,8.0,-100.00,ENE,77,9.0,15.0,14,-99.99,,,0.00,0.000000,,2013-01-20 10:32:00,
2013-01-20 03:22:00,54.0,9.0,-100.00,ENE,75,9.0,12.0,16,-99.99,,,0.00,0.000000,,2013-01-20 11:22:00,
2013-01-20 03:33:00,54.0,9.0,-100.00,ENE,75,9.0,12.0,16,-99.99,,,0.00,0.000000,,2013-01-20 11:33:00,
2013-01-20 04:33:00,57.0,8.0,-100.00,ENE,72,9.0,12.0,14,-99.99,,,0.00,0.000000,,2013-01-20 12:33:00,
2013-01-20 05:33:00,55.0,11.0,-100.00,ENE,58,12.0,14.0,17,-99.99,,,0.00,0.000000,,2013-01-20 13:33:00,
2013-01-20 06:23:00,52.0,11.0,-100.00,ENE,57,9.0,16.0,19,-99.99,,,0.00,0.000000,,2013-01-20 14:23:00,
2013-01-20 06:33:00,52.0,11.0,-100.00,ENE,57,9.0,16.0,19,-99.99,,,0.00,0.000000,,2013-01-20 14:33:00,
2013-01-20 07:33:00,50.0,11.0,-100.00,ENE,58,12.0,17.0,20,-99.99,,,0.00,0.000000,,2013-01-20 15:33:00,
2013-01-20 08:33:00,52.0,7.0,-100.00,ENE,63,14.0,14.0,16,-99.99,,,0.00,0.000000,,2013-01-20 16:33:00,
2013-01-20 09:33:00,53.0,9.0,-100.00,ENE,66,16.0,20.0,17,-99.99,,,0.00,2.000000,,2013-01-20 17:33:00,
2013-01-20 10:24:00,54.0,9.0,-100.00,ENE,71,13.0,19.0,16,-99.99,,,0.00,94.000000,,2013-01-20 18:24:00,
2013-01-20 10:33:00,54.0,9.0,-100.00,ENE,71,13.0,19.0,16,-99.99,,,0.00,94.000000,,2013-01-20 18:33:00,
2013-01-20 11:33:00,58.0,7.0,-100.00,ENE,60,13.0,18.0,13,-99.99,,,0.00,262.000000,,2013-01-20 19:33:00,
2013-01-20 12:33:00,58.0,7.0,-100.00,ENE,66,12.0,16.0,13,-99.99,,,0.00,385.000000,,2013-01-20 20:33:00,
2013-01-20 13:33:00,61.0,10.0,-100.00,ESE,112,8.0,16.0,13,-99.99,,,0.00,470.000000,,2013-01-20 21:33:00,
2013-01-20 14:33:00,58.0,6.0,-100.00,SE,134,9.0,12.0,12,-99.99,,,0.00,495.000000,,2013-01-20 22:33:00,
2013-01-20 15:23:00,60.0,7.0,-100.00,ESE,117,5.0,12.0,12,-99.99,,,0.00,461.000000,,2013-01-20 23:23:00,
2013-01-20 15:33:00,60.0,7.0,-100.00,ESE,117,5.0,12.0,12,-99.99,,,0.00,461.000000,,2013-01-20 23:33:00,
2013-01-20 16:23:00,58.0,6.0,-100.00,SE,125,6.0,8.0,12,0.00,,,0.00,367.000000,,2013-01-21 00:23:00,
2013-01-20 17:33:00,58.0,11.0,-100.00,ENE,75,5.0,10.0,15,0.00,,,0.00,236.000000,,2013-01-21 01:33:00,
2013-01-20 18:23:00,56.0,12.0,-100.00,ENE,74,9.0,12.0,17,-99.99,,,0.00,60.000000,,2013-01-21 02:23:00,
2013-01-20 18:33:00,56.0,12.0,-100.00,ENE,74,9.0,12.0,17,-99.99,,,0.00,60.000000,,2013-01-21 02:33:00,
2013-01-20 19:33:00,51.0,16.0,-100.00,NE,50,9.0,15.0,24,-99.99,,,0.00,0.000000,,2013-01-21 03:33:00,
2013-01-20 20:33:00,53.0,16.0,-100.00,East,88,14.0,18.0,23,-99.99,,,0.00,0.000000,,2013-01-21 04:33:00,
2013-01-20 21:22:00,55.0,12.0,-100.00,ESE,106,10.0,19.0,18,-99.99,,,0.00,0.000000,,2013-01-21 05:22:00,
2013-01-20 21:34:00,55.0,12.0,-100.00,ESE,106,10.0,19.0,18,-99.99,,,0.00,0.000000,,2013-01-21 05:34:00,
2013-01-20 22:33:00,56.0,13.0,-100.00,South,178,8.0,12.0,18,-99.99,,,0.00,0.000000,,2013-01-21 06:33:00,
2013-01-20 23:33:00,54.0,10.0,-100.00,South,175,8.0,11.0,17,-99.99,,,0.00,0.000000,,2013-01-21 07:33:00,